Weather History for KGEV - March, 2013

Change the Weather History Date:

Wednesday, March 20, 2013

  Actual Average Record
Temperature  
Mean Temperature 36 °F -  
Max Temperature 44 °F 55 °F 77 °F (1968)
Min Temperature 28 °F 32 °F 16 °F (1981)
Degree Days  
Heating Degree Days 29    
Moisture  
Dew Point 4 °F    
Average Humidity 29    
Maximum Humidity 86    
Minimum Humidity 13    
Precipitation  
Precipitation 0.00 in - - ()
Sea Level Pressure  
Sea Level Pressure 29.91 in    
Wind  
Wind Speed 10 mph (WNW)    
Max Wind Speed 22 mph    
Max Gust Speed 32 mph    
Visibility 10 miles    
Events Snow    
Averages and records for this station are not official NWS values.
T = Trace of Precipitation, MM = Missing Value Source: NWS Daily Summary

Daily Weather History Graph

Daily Weather History Graph

Search for Another Location

Airport or City:

Trip Planner

Search our weather history database for the weather conditions in past years. The results will help you decide how hot, cold, wet, or windy it might be!

Date:

Astronomy

Mar. 20, 2013 Rise Set
Actual Time 7:28 AM EDT 7:37 PM EDT
Civil Twilight 7:03 AM EDT 8:03 PM EDT
Nautical Twilight 6:33 AM EDT 8:33 PM EDT
Astronomical Twilight 6:02 AM EDT 9:04 PM EDT
Moon 1:20 PM EDT (3/20) 2:58 AM EDT (3/20)
Length of Visible Light 13h 00m
Length of Day
12h 08m
First Quarter, 59% of the Moon is Illuminated
Mar 20
First Quarter
Mar 27
Full
Apr 3
Last Quarter
Apr 10
New
Apr 18
First Quarter

Hourly Weather History & Observations

Time (EDT) Temp. Windchill Dew Point Humidity Pressure Visibility Wind Dir Wind Speed Gust Speed Precip Events Conditions
12:15 AM 35.6 °F 31.7 °F -3.5 °F 19% 30.02 in 10.0 mi WNW 4.6 mph 20.7 mph N/A   Clear
12:35 AM 35.2 °F 28.1 °F -2.4 °F 20% 30.02 in 10.0 mi WNW 9.2 mph 19.6 mph N/A   Clear
1:15 AM 34.7 °F 25.5 °F -1.8 °F 21% 30.00 in 10.0 mi NW 13.8 mph 21.9 mph N/A   Clear
1:35 AM 34.5 °F 26.7 °F -3.6 °F 20% 30.01 in 10.0 mi West 10.4 mph 23.0 mph N/A   Clear
1:55 AM 34.0 °F 27.2 °F -3.3 °F 20% 30.02 in 10.0 mi WNW 8.1 mph 19.6 mph N/A   Clear
2:15 AM 33.4 °F 24.3 °F -5.3 °F 19% 30.01 in 10.0 mi WNW 12.7 mph 20.7 mph N/A   Clear
2:35 AM 33.3 °F 24.1 °F -5.1 °F 19% 30.00 in 10.0 mi NW 12.7 mph 19.6 mph N/A   Clear
2:55 AM 32.9 °F 27.5 °F -3.8 °F 21% 30.01 in 10.0 mi WNW 5.8 mph 17.3 mph N/A   Clear
3:15 AM 32.5 °F 24.8 °F -2.2 °F 23% 30.00 in 10.0 mi WNW 9.2 mph 24.2 mph N/A   Clear
3:35 AM 32.4 °F 25.3 °F -1.7 °F 23% 30.00 in 10.0 mi WNW 8.1 mph 24.2 mph N/A   Clear
3:55 AM 32.0 °F 24.2 °F -1.5 °F 24% 29.99 in 10.0 mi WNW 9.2 mph 23.0 mph N/A   Clear
4:15 AM 32.0 °F 24.8 °F -1.3 °F 24% 29.99 in 10.0 mi NW 8.1 mph 17.3 mph N/A   Clear
4:35 AM 31.6 °F 26.0 °F -0.2 °F 26% 29.98 in 10.0 mi WNW 5.8 mph - N/A   Clear
4:55 AM 31.1 °F 21.4 °F 0.5 °F 27% 29.97 in 10.0 mi NW 12.7 mph 18.4 mph N/A   Clear
5:15 AM 30.9 °F 24.3 °F 0.9 °F 28% 29.98 in 10.0 mi NNW 6.9 mph - N/A   Clear
5:35 AM 30.6 °F 24.7 °F 1.6 °F 29% 29.98 in 10.0 mi NW 5.8 mph - N/A   Clear
5:55 AM 30.2 °F 24.3 °F 2.1 °F 30% 29.98 in 10.0 mi NW 5.8 mph 16.1 mph N/A   Clear
6:15 AM 30.0 °F 23.2 °F 2.3 °F 31% 29.98 in 10.0 mi WNW 6.9 mph - N/A   Clear
6:35 AM 29.5 °F 20.4 °F 2.5 °F 32% 29.98 in 10.0 mi NW 10.4 mph - N/A   Clear
6:55 AM 29.3 °F - 2.8 °F 32% 29.98 in 10.0 mi Calm Calm - N/A   Clear
7:35 AM 28.4 °F - 3.4 °F 34% 29.99 in 10.0 mi Calm Calm - N/A   Clear
7:55 AM 28.4 °F 23.3 °F 3.0 °F 34% 29.99 in 10.0 mi WNW 4.6 mph - N/A   Clear
8:15 AM 29.3 °F - 1.9 °F 31% 30.00 in 10.0 mi Calm Calm - N/A   Clear
8:35 AM 29.3 °F 21.5 °F 3.7 °F 34% 30.00 in 10.0 mi West 8.1 mph - N/A   Clear
9:15 AM 30.9 °F 21.7 °F 2.5 °F 30% 30.01 in 10.0 mi West 11.5 mph - N/A   Clear
9:35 AM 31.8 °F 22.8 °F 2.5 °F 29% 30.01 in 10.0 mi West 11.5 mph - N/A   Clear
9:55 AM 31.8 °F 22.3 °F 1.8 °F 28% 30.01 in 10.0 mi West 12.7 mph 19.6 mph N/A   Clear
10:15 AM 32.2 °F 22.7 °F 2.1 °F 28% 30.01 in 10.0 mi West 12.7 mph - N/A   Clear
10:35 AM 33.6 °F 25.0 °F 1.9 °F 26% 30.01 in 10.0 mi West 11.5 mph 16.1 mph N/A   Clear
10:55 AM 34.7 °F 26.9 °F 1.8 °F 25% 30.00 in 10.0 mi West 10.4 mph - N/A   Clear
11:15 AM 35.2 °F 26.6 °F 2.7 °F 25% 30.00 in 10.0 mi West 12.7 mph 16.1 mph N/A   Clear
11:35 AM 36.5 °F 28.7 °F 3.6 °F 25% 30.00 in 10.0 mi West 11.5 mph - N/A   Clear
11:55 AM 37.6 °F 29.1 °F 4.5 °F 25% 30.00 in 10.0 mi West 13.8 mph 19.6 mph N/A   Clear
12:15 PM 38.5 °F 29.9 °F 4.6 °F 24% 29.98 in 10.0 mi WNW 15.0 mph 23.0 mph N/A   Clear
12:35 PM 39.7 °F 31.2 °F 4.8 °F 23% 29.97 in 10.0 mi West 16.1 mph 20.7 mph N/A   Clear
12:55 PM 39.9 °F 32.1 °F 4.5 °F 23% 29.97 in 10.0 mi West 13.8 mph 23.0 mph N/A   Clear
1:15 PM 40.3 °F 34.9 °F 4.5 °F 23% 29.95 in 10.0 mi SW 8.1 mph 20.7 mph N/A   Clear
1:35 PM 41.4 °F 35.2 °F 3.4 °F 21% 29.93 in 10.0 mi West 10.4 mph 18.4 mph N/A   Clear
1:55 PM 42.3 °F 35.9 °F 2.3 °F 19% 29.93 in 10.0 mi West 11.5 mph 17.3 mph N/A   Clear
2:15 PM 42.3 °F 35.1 °F -0.2 °F 17% 29.91 in 10.0 mi WNW 13.8 mph 25.3 mph N/A   Clear
2:35 PM 42.8 °F 37.5 °F -0.2 °F 17% 29.89 in 10.0 mi West 9.2 mph 23.0 mph N/A   Clear
2:55 PM 43.3 °F 37.7 °F -2.9 °F 14% 29.89 in 10.0 mi West 10.4 mph 24.2 mph N/A   Clear
3:15 PM 43.7 °F 35.4 °F -4.2 °F 13% 29.87 in 10.0 mi West 19.6 mph 27.6 mph N/A   Clear
3:35 PM 43.5 °F 36.1 °F -4.9 °F 13% 29.86 in 10.0 mi WSW 16.1 mph 25.3 mph N/A   Clear
4:15 PM 44.2 °F 40.3 °F -1.1 °F 15% 29.83 in 10.0 mi SW 6.9 mph 20.7 mph N/A   Scattered Clouds
4:35 PM 44.2 °F 39.2 °F -1.5 °F 15% 29.83 in 10.0 mi West 9.2 mph 18.4 mph N/A   Scattered Clouds
4:55 PM 43.5 °F 36.7 °F 1.8 °F 18% 29.82 in 10.0 mi WNW 13.8 mph 24.2 mph N/A   Scattered Clouds
5:15 PM 43.3 °F 35.8 °F 1.9 °F 18% 29.81 in 10.0 mi WNW 16.1 mph 25.3 mph N/A   Scattered Clouds
5:35 PM 43.0 °F 36.0 °F 2.7 °F 19% 29.81 in 10.0 mi West 13.8 mph 26.5 mph N/A   Scattered Clouds
5:55 PM 41.9 °F 34.3 °F 4.1 °F 21% 29.80 in 10.0 mi WNW 15.0 mph 21.9 mph N/A   Mostly Cloudy
6:15 PM 41.5 °F 35.0 °F 4.5 °F 22% 29.80 in 10.0 mi West 11.5 mph 17.3 mph N/A   Scattered Clouds
6:35 PM 41.7 °F 36.1 °F 4.8 °F 22% 29.79 in 10.0 mi West 9.2 mph - N/A   Clear
6:55 PM 41.4 °F 36.2 °F 4.1 °F 21% 29.79 in 10.0 mi WSW 8.1 mph - N/A   Clear
7:15 PM 39.7 °F 32.7 °F 4.5 °F 23% 29.79 in 10.0 mi West 11.5 mph 20.7 mph N/A   Clear
7:35 PM 39.7 °F 33.2 °F 5.0 °F 24% 29.79 in 10.0 mi West 10.4 mph - N/A   Clear
7:55 PM 39.2 °F 32.5 °F 5.5 °F 25% 29.78 in 10.0 mi WNW 10.4 mph - N/A   Scattered Clouds
8:15 PM 39.0 °F 31.8 °F 5.4 °F 25% 29.78 in 10.0 mi West 11.5 mph - N/A   Mostly Cloudy
8:35 PM 38.7 °F 32.4 °F 5.9 °F 26% 29.79 in 10.0 mi West 9.2 mph 17.3 mph N/A   Mostly Cloudy
8:55 PM 38.3 °F 31.9 °F 6.8 °F 27% 29.78 in 10.0 mi West 9.2 mph - N/A   Mostly Cloudy
9:15 PM 37.9 °F 31.5 °F 7.7 °F 29% 29.77 in 10.0 mi West 9.2 mph 19.6 mph N/A   Scattered Clouds
9:35 PM 37.8 °F 29.8 °F 8.6 °F 30% 29.77 in 10.0 mi West 12.7 mph 21.9 mph N/A   Clear
9:55 PM 36.3 °F 25.2 °F 15.4 °F 43% 29.78 in 10.0 mi West 21.9 mph 32.2 mph N/A   Mostly Cloudy
10:15 PM 32.5 °F 20.8 °F 24.4 °F 72% 29.78 in 2.0 mi WNW 19.6 mph 28.8 mph N/A Snow Light Snow
10:35 PM 32.0 °F 20.1 °F 25.0 °F 75% 29.77 in 5.0 mi WNW 19.6 mph 27.6 mph N/A Snow Light Snow
10:55 PM 32.0 °F 21.2 °F 23.7 °F 71% 29.76 in 10.0 mi WNW 16.1 mph 26.5 mph N/A Snow Light Snow
11:15 PM 31.5 °F 21.4 °F 25.2 °F 78% 29.76 in 3.0 mi WNW 13.8 mph - N/A Snow Light Snow
11:35 PM 31.5 °F 21.4 °F 25.9 °F 80% 29.77 in 1.8 mi WNW 13.8 mph 26.5 mph N/A Snow Light Snow
11:55 PM 30.0 °F 19.1 °F 26.4 °F 86% 29.77 in 1.0 mi NW 15.0 mph 25.3 mph N/A Snow Light Snow